www.pogodaiklimat.ru

Погода и климат >> Архив погоды >> Индия >> Андхра-Прадеш >> Калингапатнам


ПОГОДА в Калингапатнаме

  • Прогноз погоды в Калингапатнаме
  • Монитор погоды в Калингапатнаме

АРХИВ ПОГОДЫ в Калингапатнаме

Время (UTC), дата Ветер
(напр.,м/с)
 
Видим.   Явления Облачность Т
(С)
Тd
(С)
f
(%)
Тe
(С)
Тes
(С)
Комфортность P
(гПа)
Po
(гПа)
Тmin
(С)
Tmax
(С)
R
(мм)
R24
(мм)
S
(см)
21 12.05 З 2 4000 м 4/3 600 м
[Sc Ac trans]
+27.2 +26.1 94 +41 +41 опасность
перегрева
1004.5 1003.9
00 13.05 штиль 0 10 км 5/3 600 м
[Sc Ac trans]
+25.8 +24.1 90 +36 +36 очень
душно
1005.2 1004.5
03 13.05 ЮЗ 3 10 км 5/4 600 м
[Sc Ci fib]
+31.6 +27.8 80 +51 +56 опасность
перегрева
1006.9 1006.3 +25.4 +33.7
06 13.05 ЮЗ 8 10 км 3/1 600 м
[Sc Ac trans]
+32.0 +27.6 78 +52 +54 опасность
перегрева
1006.6 1006.0
09 13.05 ЮЗ 7 10 км 3/3 600 м
[Sc]
+32.4 +28.0 78 +53 +56 опасность
перегрева
1005.1 1004.5
12 13.05 ЮЗ 6 10 км 8/5 600 м
[Sc Ac trans]
+30.4 +27.7 86 +50 +50 опасность
перегрева
1003.8 1003.2 +32.7
15 13.05 ЮЗ 4 4000 м 6/4 600 м
[Sc Ac trans]
+29.6 +27.7 90 +48 +48 опасность
перегрева
1006.0 1005.4
18 13.05 З 4 4000 м 8/5 600 м
[Sc Ac trans]
+29.0 +27.9 94 +48 +48 опасность
перегрева
1005.3 1004.7
21 13.05 З 3 4000 м 8/4 600 м
[Sc Ac trans Ci fib]
+27.6 +25.6 89 +41 +41 опасность
перегрева
1003.8 1003.2
00 14.05 штиль 0 4000 м 6/4 600 м
[Sc Ac trans]
+26.4 +24.4 89 +37 +37 очень
душно
1004.8 1004.1
03 14.05 ЮЗ 1 10 км 6/3 600 м
[Sc Ac trans Ci fib]
+32.2 +27.0 74 +50 +56 опасность
перегрева
1007.4 1006.8 +26.1 +32.7
06 14.05 Ю 5 10 км 3/0
[Ci fib]
+35.0 +26.7 62 +52 +64 опасность
перегрева
1006.9 1006.3
09 14.05 ЮЗ 5 10 км 3/0
[Ac trans Ci fib]
+33.4 +27.9 73 +54 +60 опасность
перегрева
1003.9 1003.3
12 14.05 ЮЗ 5 10 км 4/0
[Ac trans Ci fib]
+31.0 +28.3 86 +52 +53 опасность
перегрева
1003.4 1002.8 +35.7
15 14.05 ЮЗ 3 4000 м 3/0
[Ci fib]
+29.4 +28.0 92 +49 +49 опасность
перегрева
1005.2 1004.6
18 14.05 ЮЗ 2 4000 м 3/0
[Ci fib]
+29.0 +27.6 92 +47 +47 опасность
перегрева
1005.9 1005.3
21 14.05 штиль 0 4000 м 3/0
[Ci fib]
+28.8 +27.4 92 +46 +46 опасность
перегрева
1005.4 1004.8
00 15.05 ЮЗ 3 4000 м 3/0
[Ci fib]
+28.4 +27.6 95 +46 +46 опасность
перегрева
1005.6 1005.0
03 15.05 ЮЗ 3 10 км 4/1 600 м
[Sc Ci fib]
+31.2 +27.3 80 +50 +57 опасность
перегрева
1007.7 1007.1 +28.0 +35.7
06 15.05 ЮЗ 3 10 км 4/3 600 м
[Sc Ci fib]
+33.2 +26.6 68 +50 +62 опасность
перегрева
1007.8 1007.2
09 15.05 ЮЗ 6 10 км 4/3 600 м
[Sc Ci fib]
+32.6 +28.2 78 +54 +57 опасность
перегрева
1005.2 1004.6
12 15.05 ЮЗ 3 10 км 6/4 600 м
[Sc Ac trans Ci fib]
+30.4 +27.7 86 +50 +50 опасность
перегрева
1004.6 1004.0 +33.4
15 15.05 Ю 1 4000 м в посл. час гроза {дождь} 10/8 600 м
[Cb cap As op]
+24.0 +22.5 91 +31 +31 очень
душно
1007.6 1006.9 19
18 15.05 З 2 4000 м {гроза, дождь} 8/5 600 м
[Sc Ac trans]
+24.6 +22.5 88 +32 +32 очень
душно
1007.8 1007.1 19
21 15.05 штиль 0 4000 м 4/3 600 м
[Sc Ac trans]
+24.0 +22.5 91 +31 +31 очень
душно
1006.3 1005.6 19
00 16.05 штиль 0 10 км 5/4 600 м
[Sc Ac trans]
+24.0 +22.5 91 +31 +31 очень
душно
1006.9 1006.2 19
03 16.05 З 1 10 км 5/4 600 м
[Sc Ac trans]
+30.4 +26.2 78 +46 +52 опасность
перегрева
1009.0 1008.4 +23.8 +33.4 19
06 16.05 Ю 3 10 км 4/3 600 м
[Sc Ci fib]
+32.6 +28.5 79 +55 +67 опасность
перегрева
1008.8 1008.2
09 16.05 ЮЗ 4 10 км ясно +32.0 +27.9 79 +52 +61 опасность
перегрева
1006.5 1005.9
12 16.05 ЮЗ 4 10 км 3/3 600 м
[Sc]
+30.6 +27.6 84 +49 +50 опасность
перегрева
1005.6 1005.0 +32.6
15 16.05 ЮЗ 3 4000 м 4/3 600 м
[Sc Ci fib]
+29.6 +27.7 90 +48 +48 опасность
перегрева
1007.7 1007.1
18 16.05 ЮЗ 2 4000 м 6/4 600 м
[Sc Ac trans]
+29.2 +28.1 94 +49 +49 опасность
перегрева
1007.6 1007.0
21 16.05 ЮЗ 2 4000 м 5/4 600 м
[Sc Ci fib]
+29.0 +27.9 94 +48 +48 опасность
перегрева
1006.0 1005.4
00 17.05 ЮЗ 3 4000 м 8/5 600 м
[Sc Ac trans]
+28.6 +27.8 95 +47 +47 опасность
перегрева
1006.7 1006.1
03 17.05 ЮЗ 2 10 км 9/6 600 м
[Sc Ac trans]
+30.2 +28.6 91 +51 +54 опасность
перегрева
1008.6 1008.0 +27.6 +32.6
06 17.05 ЮЗ 4 10 км 4/4 600 м
[Sc]
+32.4 +28.9 82 +56 +64 опасность
перегрева
1008.1 1007.5
09 17.05 ЮЗ 7 10 км ясно +32.0 +28.2 80 +53 +56 опасность
перегрева
1005.1 1004.5
12 17.05 ЮЗ 6 10 км 8/5 600 м
[Sc Ac trans]
+30.0 +27.8 88 +49 +49 опасность
перегрева
1004.8 1004.2 +32.6
15 17.05 З 5 4000 м 6/4 600 м
[Sc Ac trans Ci fib]
+29.4 +24.2 74 +41 +41 опасность
перегрева
1005.8 1005.2
18 17.05 ЮЗ 3 4000 м 8/5 600 м
[Sc Ac trans]
+29.0 +27.6 92 +47 +47 опасность
перегрева
1005.5 1004.9
21 17.05 ЮЗ 1 4000 м 4/3 600 м
[Sc Ac trans]
+28.6 +27.8 95 +47 +47 опасность
перегрева
1004.4 1003.8
00 18.05 З 2 10 км 4/3 600 м
[Sc Ac trans]
+28.2 +27.4 95 +45 +45 опасность
перегрева
1005.3 1004.7
03 18.05 З 5 10 км 5/3 600 м
[Sc Ac trans Ci fib]
+31.6 +27.8 80 +51 +55 опасность
перегрева
1006.7 1006.1 +26.9 +32.6
06 18.05 Ю 5 10 км 3/3 600 м
[Sc]
+34.0 +28.3 72 +55 +64 опасность
перегрева
1006.8 1006.2
09 18.05 ЮЗ 7 10 км ясно +32.4 +28.9 82 +56 +60 опасность
перегрева
1003.4 1002.8
12 18.05 ЮЗ 3 10 км 6/4 600 м
[Sc Ac trans]
+30.4 +28.5 90 +52 +52 опасность
перегрева
1003.3 1002.7 +34.3
15 18.05 ЮЗ 7 4000 м 5/4 600 м
[Sc Ci fib]
+29.6 +28.5 94 +50 +50 опасность
перегрева
1005.4 1004.8
18 18.05 ЮЗ 4 4000 м 8/4 600 м
[Sc Ac trans Ci fib]
+29.2 +28.1 94 +49 +49 опасность
перегрева
1005.1 1004.5
21 18.05 ЮЗ 3 4000 м 8/5 600 м
[Sc Ac trans]
+28.8 +28.0 95 +47 +47 опасность
перегрева
1004.4 1003.8
00 19.05 ЮЗ 5 4000 м 8/4 600 м
[Sc Ac trans Ci fib]
+28.6 +27.8 95 +47 +47 опасность
перегрева
1005.0 1004.4
03 19.05 З 2 10 км 4/3 600 м
[Sc Ac trans]
+31.8 +28.0 80 +52 +58 опасность
перегрева
1006.9 1006.3 +28.4 +34.3
06 19.05 ЮЗ 7 10 км ясно +33.4 +28.2 74 +54 +61 опасность
перегрева
1006.6 1006.0
09 19.05 Ю 5 10 км 3/0
[Ac trans Ci fib]
+32.6 +28.8 80 +55 +63 опасность
перегрева
1004.6 1004.0
12 19.05 ЮЗ 5 10 км 4/3 600 м
[Sc Ci fib]
+31.8 +28.3 82 +53 +53 опасность
перегрева
1004.5 1003.9 +33.5
15 19.05 штиль 0 50 км ?/? +29.6 +28.5 94 +50 +50 опасность
перегрева
1006.6 1006.0
18 19.05 З 2 4000 м ясно +29.4 +28.6 95 +50 +50 опасность
перегрева
1007.1 1006.5

 

Местоположение метеостанции Калингапатнам (Андхра-Прадеш, Индия): широта 18.33 долгота 84.13 высота над уровнем моря 7 м.

В архиве по умолчанию представлена погода в Калингапатнаме за последнюю неделю. Архивные данные за месяц целиком и за предыдущие месяцы, начиная с января 2011 года, Вы можете получить, выбрав интересующий диапазон дат из раскрывающегося списка и нажав кнопку "Ввод!".


*Определитесь, кто Вы:
робот инопланетянин человек

Внимание! Время в таблицах - всемирное. Для получения местного времени необходимо прибавить поправку, которая равна 5.5 ч.

Смотрите также архив погоды в соседних городах и на ближайших метеорологических станциях:

Погода в Висакхапатнам Уолт (Андхра-Прадеш, Индия) (112 км)
Погода в Висакхапатнаме (Андхра-Прадеш, Индия) (117 км)
Погода в Гопалпере (Орисса, Индия) (131 км)
Погода в Корапуте (Орисса, Индия) (158 км)
Погода в Туни (Андхра-Прадеш, Индия) (200 км)
Погода в Бхаванипатне (Орисса, Индия) (203 км)
Погода в Титилагаре (Орисса, Индия) (236 км)
Погода в Джагдалпуре (Чхаттисгарх, Индия) (236 км)
Погода в Пхулбани (Орисса, Индия) (240 км)
Погода в Пури (Орисса, Индия) (241 км)

Пояснения к столбцам:

Ветер - указаны скорость ветра в м/с - средняя за 10 мин, порывы в срок и между сроками (в фигурных скобках) и направление, откуда дует ветер: С - северный, СВ - северо-восточный, В - восточный, ЮВ - юго-восточный, Ю - южный, ЮЗ - юго-западный, З - западный, СЗ - северо-западный.
Видимость - горизонтальная дальность видимости в метрах или километрах. При видимости от 1 до 10 км при отсутствии осадков обычно наблюдается дымка, при ухудшении видимости до 1 км и менее - туман. В сухую погоду видимость может ухудшаться дымом, пылью или мглою.
Явления - указаны атмосферные явления, наблюдавшиеся в срок или в последний час перед сроком; фигурными скобками обозначены явления, наблюдавшиеся между сроками (за 1-3 часа до срока); квадратными скобками обозначены град или гололедные отложения с указанием их диаметра в мм.
Облачность - указаны через наклонную черту общая и нижняя облачность в баллах и высота нижней границы облаков в метрах; квадратными скобками обозначены формы облаков: Ci - перистые, Cs - перисто-слоистые, Cc - перисто-кучевые, Ac - высококучевые, As - высокослоистые, Sc - слоисто-кучевые, Ns - слоисто-дождевые, Cu - кучевые, Cb - кучево-дождевые. Подробнее классификацию облаков см. в Атласе облаков (PDF).
T - Температура воздуха - температура, измеренная на высоте 2 м над землей.
Td - Температура точки росы - температура, при понижении до которой содержащийся в воздухе водяной пар достигнет насыщения.
f - Относительная влажность воздуха - влажноcть воздуха, измеренная на высоте 2 м над землей.
Te - Эффективная температура - температура, которую ощущает одетый по сезону человек в тени. Характеристика душности погоды. При расчете учитывается влияние влажности воздуха и скорости ветра на теплоощущения человека.
Tes - Эффективная температура на солнце - температура, которую ощущает человек, с поправкой на солнечный нагрев. Характеристика знойности погоды. Зависит от высоты солнца над горизонтом, облачности и скорости ветра. Ночью, в пасмурную погоду, а также при ветре 12 м/с и более поправка равна нулю.
P - Атмосферное давление - приведенное к уровню моря атмосферное давление.
Po - Атмосферное давление - измеренное на уровне метеостанции атмосферное давление.
Tmin - Минимальная температура - минимум температуры воздуха на высоте 2 м над землей.
Tmax - Максимальная температура - максимум температуры воздуха на высоте 2 м над землей.
R - Количество осадков - Количество выпавших осадков за период времени, мм. При наведении курсора мыши на число - период времени, за который выпало указанное количество осадков.
R24 - Количество осадков - Количество выпавших осадков за 24 часа, мм.
S - Снежный покров - Высота снежного покрова, см. При наведении курсора мыши на число - состояние снежного покрова и степень покрытия местности в баллах.